TimeCST,TemperatureF,Dew PointF,Humidity,Sea Level PressureIn,VisibilityMPH,Wind Direction,Wind SpeedMPH,Gust SpeedMPH,PrecipitationIn,Events,Conditions,WindDirDegrees,DateUTC
12:15 AM,28.0,15.4,59,30.15,10.0,West,15.0,-,N/A,,Clear,280,2011-11-10 06:15:00
12:35 AM,28.0,15.8,60,30.14,10.0,West,12.7,-,N/A,,Clear,280,2011-11-10 06:35:00
12:55 AM,27.9,15.8,61,30.14,10.0,West,13.8,-,N/A,,Clear,280,2011-11-10 06:55:00
1:15 AM,27.7,15.8,61,30.14,10.0,West,13.8,-,N/A,,Clear,280,2011-11-10 07:15:00
1:35 AM,27.3,15.6,61,30.14,10.0,West,13.8,-,N/A,,Clear,280,2011-11-10 07:35:00
1:55 AM,27.3,15.8,62,30.14,10.0,West,13.8,-,N/A,,Clear,280,2011-11-10 07:55:00
2:15 AM,27.5,15.6,61,30.14,10.0,WNW,16.1,-,N/A,,Clear,290,2011-11-10 08:15:00
2:35 AM,27.5,15.6,61,30.14,10.0,WNW,15.0,-,N/A,,Clear,290,2011-11-10 08:35:00
2:55 AM,27.1,15.4,61,30.14,10.0,WNW,16.1,-,N/A,,Clear,290,2011-11-10 08:55:00
3:15 AM,26.8,15.3,62,30.14,10.0,West,15.0,-,N/A,,Clear,280,2011-11-10 09:15:00
3:35 AM,26.2,14.9,62,30.14,10.0,West,15.0,-,N/A,,Clear,280,2011-11-10 09:35:00
3:55 AM,25.7,14.7,63,30.14,10.0,West,16.1,-,N/A,,Clear,280,2011-11-10 09:55:00
4:15 AM,25.0,14.5,65,30.14,10.0,West,15.0,-,N/A,,Clear,280,2011-11-10 10:15:00
4:35 AM,24.6,14.7,66,30.14,10.0,WNW,15.0,-,N/A,,Clear,290,2011-11-10 10:35:00
4:55 AM,24.4,14.7,67,30.14,10.0,WNW,15.0,-,N/A,,Clear,290,2011-11-10 10:55:00
5:15 AM,23.9,14.7,68,30.14,10.0,WNW,16.1,-,N/A,,Clear,290,2011-11-10 11:15:00
5:35 AM,25.0,15.3,67,30.15,10.0,WNW,16.1,-,N/A,,Clear,300,2011-11-10 11:35:00
6:15 AM,23.9,15.4,70,30.16,10.0,WNW,13.8,19.6,N/A,,Clear,290,2011-11-10 12:15:00
6:55 AM,23.7,15.6,71,30.17,10.0,WNW,15.0,-,N/A,,Clear,290,2011-11-10 12:55:00
7:15 AM,23.2,15.6,73,30.17,10.0,WNW,11.5,19.6,N/A,,Clear,290,2011-11-10 13:15:00
7:35 AM,22.3,15.3,74,30.18,10.0,West,11.5,-,N/A,,Clear,280,2011-11-10 13:35:00
7:55 AM,22.6,15.6,74,30.19,10.0,West,12.7,-,N/A,,Clear,280,2011-11-10 13:55:00
8:15 AM,23.9,16.2,72,30.19,10.0,West,13.8,-,N/A,,Clear,280,2011-11-10 14:15:00
8:35 AM,25.5,17.1,70,30.20,10.0,WNW,17.3,20.7,N/A,,Clear,300,2011-11-10 14:35:00
8:55 AM,27.5,18.0,67,30.19,10.0,WNW,18.4,23.0,N/A,,Clear,300,2011-11-10 14:55:00
9:15 AM,28.8,18.1,65,30.20,10.0,WNW,19.6,24.2,N/A,,Clear,300,2011-11-10 15:15:00
9:35 AM,30.0,18.3,62,30.20,10.0,WNW,13.8,-,N/A,,Clear,300,2011-11-10 15:35:00
9:55 AM,31.3,18.3,59,30.19,10.0,NW,16.1,24.2,N/A,,Clear,310,2011-11-10 15:55:00
10:15 AM,32.5,18.1,55,30.19,10.0,NW,16.1,21.9,N/A,,Clear,310,2011-11-10 16:15:00
10:35 AM,33.6,17.8,52,30.19,10.0,NW,16.1,23.0,N/A,,Clear,310,2011-11-10 16:35:00
10:55 AM,34.5,17.6,50,30.19,10.0,NW,15.0,21.9,N/A,,Clear,310,2011-11-10 16:55:00
11:15 AM,36.1,17.1,46,30.18,10.0,NW,17.3,21.9,N/A,,Clear,310,2011-11-10 17:15:00
11:35 AM,36.7,17.4,46,30.18,10.0,NW,18.4,21.9,N/A,,Clear,310,2011-11-10 17:35:00
11:55 AM,37.2,17.1,44,30.18,10.0,NW,16.1,20.7,N/A,,Clear,310,2011-11-10 17:55:00
12:15 PM,37.9,16.2,41,30.16,10.0,WNW,16.1,-,N/A,,Clear,290,2011-11-10 18:15:00
12:35 PM,38.7,15.6,39,30.16,10.0,WNW,13.8,24.2,N/A,,Clear,290,2011-11-10 18:35:00
12:55 PM,38.7,14.5,37,30.15,10.0,WNW,16.1,24.2,N/A,,Clear,300,2011-11-10 18:55:00
1:15 PM,39.4,13.6,35,30.14,10.0,WNW,17.3,25.3,N/A,,Clear,290,2011-11-10 19:15:00
1:35 PM,39.9,11.8,32,30.14,10.0,WNW,16.1,25.3,N/A,,Clear,300,2011-11-10 19:35:00
1:55 PM,40.6,10.6,29,30.13,10.0,West,20.7,-,N/A,,Clear,280,2011-11-10 19:55:00
2:15 PM,41.0,9.0,27,30.13,10.0,WNW,15.0,25.3,N/A,,Clear,290,2011-11-10 20:15:00
2:35 PM,-9999,-9999,N/A,-9999,-9999.0,North,-9999.0,-,N/A,,Unknown,0,2011-11-10 20:35:00
2:55 PM,41.4,10.0,28,30.12,10.0,NW,17.3,-,0.03,,Clear,310,2011-11-10 20:55:00
3:15 PM,39.6,12.6,33,30.12,10.0,West,17.3,21.9,N/A,,Clear,280,2011-11-10 21:15:00
3:35 PM,39.4,12.2,33,30.11,10.0,WNW,17.3,20.7,N/A,,Clear,290,2011-11-10 21:35:00
3:55 PM,38.8,12.2,34,30.11,10.0,West,15.0,19.6,N/A,,Clear,280,2011-11-10 21:55:00
4:15 PM,37.9,12.0,35,30.10,10.0,West,11.5,-,N/A,,Clear,280,2011-11-10 22:15:00
4:35 PM,36.7,11.7,36,30.10,10.0,West,9.2,-,N/A,,Clear,270,2011-11-10 22:35:00
4:55 PM,34.7,11.1,38,30.10,10.0,West,8.1,-,N/A,,Clear,270,2011-11-10 22:55:00
5:15 PM,32.4,10.8,41,30.10,10.0,West,8.1,-,N/A,,Clear,270,2011-11-10 23:15:00
5:35 PM,31.1,10.9,43,30.09,10.0,West,6.9,-,N/A,,Clear,260,2011-11-10 23:35:00
5:55 PM,30.7,11.1,44,30.08,10.0,WSW,5.8,-,N/A,,Scattered Clouds,250,2011-11-10 23:55:00
6:15 PM,31.6,11.7,44,30.08,10.0,WSW,5.8,-,N/A,,Scattered Clouds,250,2011-11-11 00:15:00
6:35 PM,31.3,11.5,44,30.07,10.0,West,6.9,-,N/A,,Clear,260,2011-11-11 00:35:00
6:55 PM,30.6,11.3,45,30.07,10.0,WSW,6.9,-,N/A,,Mostly Cloudy,250,2011-11-11 00:55:00
7:15 PM,30.0,11.3,46,30.06,10.0,WSW,5.8,-,N/A,,Scattered Clouds,250,2011-11-11 01:15:00
7:35 PM,29.8,11.1,46,30.06,10.0,WSW,4.6,-,N/A,,Scattered Clouds,250,2011-11-11 01:35:00
7:55 PM,29.8,11.3,46,30.06,10.0,WSW,3.5,-,N/A,,Scattered Clouds,250,2011-11-11 01:55:00
8:15 PM,30.2,11.3,45,30.05,10.0,SW,4.6,-,N/A,,Scattered Clouds,220,2011-11-11 02:15:00
8:35 PM,30.7,11.1,44,30.05,10.0,SSW,4.6,-,N/A,,Mostly Cloudy,210,2011-11-11 02:35:00
8:55 PM,29.8,11.1,46,30.04,10.0,South,5.8,-,N/A,,Mostly Cloudy,190,2011-11-11 02:55:00
9:15 PM,28.9,11.3,48,30.04,10.0,SSW,5.8,-,N/A,,Overcast,210,2011-11-11 03:15:00
9:35 PM,28.0,11.1,49,30.02,10.0,SSW,5.8,-,N/A,,Scattered Clouds,200,2011-11-11 03:35:00
9:55 PM,27.1,10.4,49,30.01,10.0,South,6.9,-,N/A,,Clear,180,2011-11-11 03:55:00
10:15 PM,26.6,10.2,50,30.01,10.0,South,9.2,-,N/A,,Clear,170,2011-11-11 04:15:00
10:35 PM,25.9,10.4,52,30.00,10.0,SSE,10.4,-,N/A,,Clear,160,2011-11-11 04:35:00
10:55 PM,25.3,10.2,53,29.99,10.0,South,10.4,-,N/A,,Clear,170,2011-11-11 04:55:00
11:15 PM,25.5,10.6,53,29.98,10.0,South,10.4,-,N/A,,Clear,170,2011-11-11 05:15:00
11:35 PM,25.7,10.9,54,29.98,10.0,South,9.2,-,N/A,,Clear,170,2011-11-11 05:35:00